[[{"header":{"parameterUnit":"m.s-1","parameterCategory":1,"la1":30.2991,"la2":30.254,"lo1":-89.0895,"lo2":-89.0444,"dy":0.0017,"dx":0.0017,"nx":28,"ny":28,"refTime":"2024-07-18T21:00:00:Z","depth":0,"parameterNumber":2,"parameterNumberName":"U-component_of_WINDS"},"data":[0,0,0,0,0,0,0,0,0,0,0,0,0,0,0,0,0,0,0,0,0,0,0,0,0,0,0,0,0,0,0,0,0,0,0,0,0,0,0,0,0,0,0,0,0,0,0,0,0,0,0,0,0,0,0,0,0,0,5.6542,5.6543,0,5.657,5.6571,5.6571,5.6447,5.6443,5.644,5.6436,5.6458,5.6462,5.6465,0,0,0,0,0,0,0,0,0,0,0,0,0,5.6376,5.638,5.6542,5.6543,5.6543,5.657,5.6571,5.6571,5.6447,5.6443,5.6439,5.6435,5.6456,5.6461,5.6466,0,0,0,0,0,0,0,0,0,0,0,0,0,5.6431,5.6381,5.6542,5.6485,5.648,5.657,5.6571,5.6571,5.6448,5.6443,5.6437,5.6432,5.6455,5.6461,5.6466,5.6611,0,0,5.6484,5.6487,0,0,0,0,0,0,0,0,5.6428,5.6437,5.6493,5.6489,5.6484,5.65,5.652,5.6584,5.645,5.646,5.6436,5.643,5.6476,5.6479,5.6496,5.6612,5.6613,5.6485,5.6489,5.6491,5.6493,0,0,0,0,0,0,0,5.6424,5.6435,5.6553,5.6494,5.6488,5.6456,5.6458,5.6531,5.6498,5.6459,5.645,5.6455,5.6472,5.6491,5.6496,5.6613,5.6485,5.649,5.6494,5.6496,5.6849,5.6854,0,0,0,0,0,0,5.6429,5.6433,5.6552,5.6554,5.6442,5.6463,5.6465,5.65,5.6496,5.6491,5.646,5.6449,5.6483,5.6489,5.6496,5.6664,5.6491,5.6497,5.65,5.6843,5.685,5.6856,0,0,0,0,0,0,5.6426,5.6441,5.6551,5.6491,5.6503,5.6472,5.6512,5.6503,5.6522,5.6497,5.649,5.6486,5.6479,5.6488,5.6584,5.6663,5.6499,5.6505,5.6836,5.6845,5.6853,5.7002,0,0,0,0,0,0,5.6422,5.644,5.6496,5.6493,5.6506,5.664,5.6517,5.6508,5.6533,5.652,5.652,5.6514,5.6476,5.6576,5.659,5.6668,5.6509,5.6828,5.684,5.685,5.699,5.7015,5.7036,0,0,0,0,0,5.6416,5.6535,5.6499,5.6515,5.6576,5.6645,5.6652,5.6607,5.654,5.6595,5.658,5.6514,5.6653,5.6587,5.6601,5.6683,5.6823,5.6837,5.6849,5.6979,5.701,5.7036,0,0,0,0,0,0,5.6544,5.6534,5.6494,5.6616,5.6633,5.6624,5.6691,5.6641,5.6675,5.6661,5.6602,5.6603,5.6709,5.6705,5.6631,5.6823,5.6726,5.6743,5.682,5.6849,5.6872,5.6868,5.6514,0,0,0,0,0,5.6588,5.6648,5.6634,5.6743,5.6754,5.6722,5.675,5.6715,5.6729,5.6734,5.6725,5.674,5.6786,5.6818,5.6859,5.699,5.6987,5.7054,5.7077,5.7096,5.711,5.7178,5.7207,5.6899,5.6899,5.6899,0,0,5.6676,5.6678,5.6718,5.6769,5.6778,5.6839,5.6728,5.6797,5.6841,5.6744,5.6834,5.6829,5.6841,5.6955,5.7004,5.6955,5.7195,5.7113,5.7128,5.7132,5.7195,5.7224,5.725,5.6908,5.6906,5.6905,0,0,5.6867,5.6876,5.6968,5.698,5.6996,5.6975,5.6998,5.6997,5.6991,5.7081,5.701,5.7061,5.7143,5.7154,5.717,5.7371,5.7312,5.7386,5.7506,5.7573,5.7597,5.7618,5.7688,5.7714,5.7401,5.7402,5.7402,0,5.6974,5.7065,5.702,5.7095,5.7119,5.7038,5.713,5.7143,5.7171,5.7188,5.7134,5.7236,5.7238,5.7354,5.7403,5.742,5.7442,5.7384,5.7598,5.7619,5.7638,5.7703,5.773,5.741,5.7409,5.7408,5.7408,0,5.7195,5.726,5.7332,5.7364,5.7397,5.7479,5.7445,5.7483,5.7447,5.7431,5.7524,5.7525,5.7565,5.759,5.7554,5.7701,5.767,5.7609,5.7509,5.7677,5.7737,5.7762,5.7423,5.742,5.7417,5.7415,0,0,5.7463,5.7474,5.75,5.7514,5.7528,5.7576,5.7656,5.7698,5.7731,5.7754,5.7817,5.7891,5.7834,5.7853,5.7818,5.7877,5.8034,5.7808,5.7807,5.7848,5.8195,5.8239,5.8269,5.7997,5.8002,5.8006,5.8193,0,5.7649,5.7787,5.7751,5.7886,5.7945,5.7871,5.794,5.7955,5.7944,5.799,5.7976,5.8028,5.7951,5.7962,5.8018,5.8004,5.8103,5.799,5.8052,5.8055,5.8049,5.8301,5.8347,5.8524,5.8217,5.8221,5.8224,0,5.7883,5.7919,5.8062,5.8068,5.8091,5.8154,5.8191,5.8237,5.8253,5.824,5.8264,5.8217,5.8293,5.8198,5.8301,5.8226,5.825,5.8247,5.8253,5.8254,5.8147,5.8306,5.8579,5.8605,5.8261,5.8258,5.8255,0,5.8062,5.8146,5.8242,5.8257,5.8267,5.8313,5.8319,5.8329,5.8358,5.839,5.8407,5.8447,5.8468,5.8499,5.8464,5.8398,5.8572,5.8474,5.8561,5.8562,5.8597,5.8595,5.8876,5.8619,5.8619,5.8618,5.8618,0,5.8271,5.836,5.8323,5.8382,5.848,5.8438,5.8536,5.8533,5.8544,5.8599,5.8539,5.8592,5.8543,5.8592,5.8565,5.8654,5.8664,5.8654,5.8645,5.8658,5.8659,5.867,5.8655,5.8625,5.8624,5.8623,5.8621,0,5.8484,5.8463,5.8563,5.8567,5.857,5.8642,5.8643,5.8697,5.8683,5.8754,5.8768,5.8745,5.8799,5.8769,5.8823,5.8805,5.892,5.8896,5.8916,5.8908,5.8996,5.8987,5.929,5.9327,5.9051,5.9053,5.9056,0,5.8617,5.8685,5.8697,5.8732,5.8743,5.8799,5.8829,5.8791,5.8824,5.885,5.89,5.895,5.8987,5.9077,5.9063,5.9105,5.9079,5.9183,5.9085,5.9096,5.9078,5.9073,5.9079,5.9202,5.9205,5.9208,5.921,0,5.8854,5.8842,5.8889,5.8934,5.8972,5.9005,5.9031,5.9063,5.9025,5.9066,5.9122,5.9152,5.921,5.9259,5.9296,5.9299,5.9248,5.9242,5.9264,5.9275,5.9283,5.9277,5.8966,5.9234,5.9231,5.9229,5.9228,5.9227,5.9029,5.9086,5.9105,5.916,5.9177,5.9205,5.9256,5.9251,5.9298,5.9344,5.9319,5.9385,5.94,5.9444,5.9455,5.9504,5.9462,5.9494,5.9502,5.951,5.9521,5.9279,5.9511,5.951,5.951,5.9509,5.9509,0,5.9261,5.9271,5.9322,5.9364,5.9407,5.9361,5.9389,5.9427,5.9487,5.9507,5.9547,5.9612,5.9661,5.9654,5.9697,5.9738,5.9716,5.9751,5.9745,5.9747,5.9557,5.9532,5.9768,5.9768,5.9768,5.9768,5.9768,5.9768,5.9386,5.9481,5.9471,5.9573,5.9581,5.9648,5.9668,5.9693,5.9709,5.9786,5.9827,5.9824,5.9833,5.9877,5.9919,5.9916,5.9933,5.9977,5.9964,5.9786,5.976,5.9735,5.9712,5.9982,5.9982,6.0149,6.0151,6.0152]},{"header":{"parameterUnit":"m.s-1","parameterCategory":1,"la1":30.2991,"la2":30.254,"lo1":-89.0895,"lo2":-89.0444,"dy":0.0017,"dx":0.0017,"nx":28,"ny":28,"refTime":"2024-07-18T21:00:00:Z","depth":0,"parameterNumber":3,"parameterNumberName":"V-component_of_WINDS"},"data":[0,0,0,0,0,0,0,0,0,0,0,0,0,0,0,0,0,0,0,0,0,0,0,0,0,0,0,0,0,0,0,0,0,0,0,0,0,0,0,0,0,0,0,0,0,0,0,0,0,0,0,0,0,0,0,0,0,0,7.9887,7.9885,0,7.9754,7.9752,7.9751,7.9637,7.9636,7.9634,7.9633,7.9493,7.949,7.9488,0,0,0,0,0,0,0,0,0,0,0,0,0,8.0037,8.0034,7.9887,7.9885,7.9884,7.9754,7.9752,7.975,7.9637,7.9636,7.9634,7.9633,7.9494,7.9491,7.9488,0,0,0,0,0,0,0,0,0,0,0,0,0,7.9944,8.0034,7.9887,7.9812,7.9804,7.9754,7.9752,7.975,7.9637,7.9636,7.9634,7.9632,7.9495,7.9491,7.9487,7.9501,0,0,7.9476,7.9474,0,0,0,0,0,0,0,0,7.995,7.9939,7.9824,7.9817,7.9808,7.971,7.9753,7.9666,7.9638,7.97,7.9633,7.9631,7.9566,7.9557,7.9536,7.9495,7.9489,7.9475,7.9473,7.9471,7.947,0,0,0,0,0,0,0,7.9956,7.9944,7.9834,7.9823,7.9813,7.9782,7.9767,7.9736,7.9645,7.9695,7.9686,7.9672,7.9561,7.954,7.9532,7.9487,7.9475,7.9472,7.947,7.9468,7.9444,7.9445,0,0,0,0,0,0,7.9975,7.995,7.9838,7.983,7.9876,7.9781,7.9764,7.9743,7.9646,7.9629,7.9674,7.9667,7.9547,7.9536,7.9526,7.9532,7.9471,7.9468,7.9465,7.9442,7.9444,7.9446,0,0,0,0,0,0,7.9979,7.9966,7.9844,7.9888,7.987,7.978,7.9758,7.9742,7.972,7.963,7.9613,7.9669,7.9545,7.9532,7.9507,7.9526,7.9466,7.9462,7.944,7.9443,7.9445,7.9546,0,0,0,0,0,0,7.9984,7.9968,7.9975,7.9889,7.9868,7.983,7.9759,7.974,7.9714,7.9704,7.962,7.9605,7.9543,7.9513,7.9503,7.9519,7.9459,7.9438,7.9441,7.9444,7.9541,7.9552,7.9562,0,0,0,0,0,7.9989,8.0009,7.9975,7.9963,7.9874,7.9831,7.9819,7.9748,7.9716,7.972,7.9661,7.9607,7.9526,7.9512,7.95,7.9515,7.9437,7.944,7.9444,7.9536,7.955,7.9561,0,0,0,0,0,0,8.0099,7.9996,7.9958,7.9951,7.9901,7.9812,7.9815,7.9766,7.9722,7.9715,7.9628,7.961,7.9594,7.9552,7.9538,7.952,7.9473,7.9475,7.9548,7.956,7.957,7.958,7.9456,0,0,0,0,0,8.0122,8.0097,8.0008,8.001,7.9987,7.9906,7.9884,7.9834,7.9778,7.9755,7.9695,7.9641,7.9602,7.9579,7.9539,7.9535,7.9512,7.9538,7.9549,7.9558,7.9559,7.9548,7.9558,7.9458,7.9458,7.9458,0,0,8.017,8.0111,8.01,8.0031,7.9986,7.9959,7.9888,7.9865,7.9843,7.9751,7.9724,7.9678,7.9611,7.9596,7.9586,7.956,7.9581,7.9562,7.957,7.9567,7.9553,7.9563,7.9571,7.9461,7.946,7.946,0,0,8.0243,8.0197,8.0192,8.0148,8.008,8.0025,8.0024,7.9942,7.9908,7.9879,7.9809,7.9781,7.9718,7.9672,7.964,7.9692,7.9638,7.9681,7.9734,7.9725,7.9732,7.9739,7.9753,7.976,7.9683,7.9683,7.9684,0,8.031,8.0269,8.0195,8.0174,8.0144,8.006,8.0051,8.0012,7.9935,7.9914,7.9887,7.9803,7.9752,7.9722,7.9734,7.9713,7.9706,7.969,7.9738,7.9743,7.9748,7.9761,7.9767,7.9689,7.9688,7.9688,7.9687,0,8.0353,8.0326,8.0329,8.0257,8.0227,8.0213,8.0133,8.0111,8.0063,8.001,7.9979,7.9915,7.9858,7.9848,7.9801,7.981,7.9795,7.9755,7.9705,7.9764,7.9774,7.9779,7.9696,7.9695,7.9693,7.9692,0,0,8.0492,8.0377,8.0379,8.0343,8.0261,8.0237,8.0217,8.0162,8.0143,8.0092,8.0071,8.0017,7.9977,7.9941,7.9888,7.988,7.9919,7.9839,7.9836,7.9853,7.992,7.995,7.9957,7.9884,7.9885,7.9886,7.9924,0,8.0549,8.0511,8.0441,8.0424,8.0395,8.0313,8.0294,8.0241,8.019,8.0156,8.0098,8.0061,8.0013,7.999,7.9979,7.9917,7.9931,7.9914,7.986,7.9859,7.9877,7.9963,7.9995,8.0035,7.9928,7.9929,7.9929,0,8.0612,8.0565,8.0544,8.046,8.0446,8.0431,8.0373,8.0343,8.0278,8.0241,8.02,8.014,8.0111,8.0068,8.0024,8.0013,7.9986,7.9953,7.9952,7.9943,7.9896,7.9952,8.0046,8.0051,7.9936,7.9935,7.9935,0,8.0711,8.0642,8.062,8.0592,8.0495,8.0486,8.0445,8.0378,8.0348,8.0297,8.0275,8.0221,8.0191,8.0149,8.0075,8.0051,8.0037,7.9989,8.0002,8.0004,8.0002,8.0002,8.009,7.999,7.9989,7.9989,7.9989,0,8.078,8.077,8.0663,8.0649,8.0633,8.0553,8.0539,8.0489,8.043,8.0403,8.0329,8.0304,8.0209,8.0172,8.0114,8.0083,8.0071,8.0037,8.0022,8.0043,8.0047,8.0023,8.0017,7.9991,7.999,7.999,7.999,0,8.0888,8.0816,8.0786,8.0696,8.0673,8.0665,8.0586,8.0567,8.0511,8.0477,8.0464,8.0376,8.0328,8.025,8.018,8.014,8.0119,8.0094,8.0141,8.0131,8.0147,8.0146,8.022,8.0224,8.0125,8.0126,8.0127,0,8.0936,8.0926,8.0834,8.0811,8.0773,8.0737,8.0705,8.0624,8.0594,8.0517,8.0507,8.0453,8.0406,8.0332,8.026,8.0204,8.0175,8.0205,8.0167,8.0186,8.0171,8.0172,8.0168,8.0214,8.0215,8.0217,8.0218,0,8.1028,8.0992,8.0951,8.0896,8.0861,8.0814,8.0763,8.0747,8.0653,8.0623,8.0573,8.0537,8.0463,8.0409,8.0343,8.0297,8.024,8.023,8.023,8.025,8.0276,8.0259,8.0162,8.0229,8.0228,8.0227,8.0226,8.0226,8.1105,8.109,8.1023,8.0978,8.0931,8.0884,8.0861,8.0801,8.0759,8.0694,8.0648,8.06,8.0531,8.0436,8.0392,8.0351,8.0326,8.0327,8.0326,8.0327,8.0333,8.0285,8.0339,8.0339,8.0338,8.0338,8.0337,0,8.119,8.1142,8.1101,8.1032,8.0995,8.0947,8.0887,8.0859,8.0818,8.0759,8.0714,8.0654,8.0601,8.0523,8.0462,8.0444,8.0416,8.0431,8.043,8.0419,8.0361,8.0366,8.0454,8.0454,8.0454,8.0454,8.0454,8.0454,8.1229,8.1201,8.1157,8.1103,8.1054,8.1008,8.0977,8.0932,8.0884,8.0821,8.0777,8.0727,8.0658,8.0592,8.0539,8.0517,8.0496,8.0518,8.0488,8.0435,8.0424,8.0414,8.0418,8.0515,8.0515,8.0549,8.055,8.055]}]]